When you browse on this site, cookies collect data to enhance your experience and personalize the content and advertising you see.
Visit our Privacy Policy to learn more. By continuing to use the site, you agree to this use of cookies and data.
  • In Österreich
  • Länderverzeichnis
  • Für 7 Tage
  • Wassertemperatur
  • Satellitenkarten
  • Wetterkarte
  • News
  • Widgets
  • user-avatar
    Anmelden

    Stündliche Wetter Borovaya

    Heute, 24 Mai, Freitag

    Zeit Temperatur Niederschläge Wind Luftdruck Luftfeuchtigkeit
    00:00 +18°C° 0.1 mm 1 m/S 744 mmHg 77%
    01:00 +16°C° 0.1 mm 1 m/S 744 mmHg 78%
    02:00 +16°C° 0.1 mm 1 m/S 744 mmHg 80%
    03:00 +16°C° 0 mm 1 m/S 744 mmHg 80%
    04:00 +16°C° 0 mm 1 m/S 744 mmHg 80%
    05:00 +16°C° 0 mm 1 m/S 745 mmHg 80%
    06:00 +19°C° 0 mm 1 m/S 745 mmHg 74%
    07:00 +21°C° 0 mm 1 m/S 745 mmHg 68%
    08:00 +23°C° 0 mm 1 m/S 745 mmHg 62%
    09:00 +22°C° 0.2 mm 0 m/S 745 mmHg 57%
    10:00 +24°C° 0.2 mm 0 m/S 745 mmHg 52%
    11:00 +25°C° 0.2 mm 0 m/S 745 mmHg 47%
    12:00 +27°C° 0 mm 1 m/S 745 mmHg 48%
    13:00 +27°C° 0 mm 1 m/S 744 mmHg 48%
    14:00 +27°C° 0 mm 1 m/S 744 mmHg 48%
    15:00 +27°C° 0 mm 1 m/S 744 mmHg 49%
    16:00 +27°C° 0 mm 1 m/S 744 mmHg 50%
    17:00 +27°C° 0 mm 1 m/S 744 mmHg 51%
    18:00 +25°C° 0.3 mm 1 m/S 744 mmHg 57%
    19:00 +23°C° 0.3 mm 2 m/S 744 mmHg 63%
    20:00 +21°C° 0.3 mm 2 m/S 744 mmHg 69%
    21:00 +20°C° 0.7 mm 2 m/S 744 mmHg 74%
    22:00 +19°C° 0.7 mm 2 m/S 744 mmHg 79%
    23:00 +18°C° 0.7 mm 2 m/S 744 mmHg 84%

    Morgen, 25 Mai, Samstag

    Zeit Temperatur Niederschläge Wind Luftdruck Luftfeuchtigkeit
    00:00 +18°C° 0.2 mm 1 m/S 743 mmHg 85%
    01:00 +18°C° 0.2 mm 1 m/S 743 mmHg 87%
    02:00 +18°C° 0.2 mm 1 m/S 743 mmHg 88%
    03:00 +18°C° 0 mm 1 m/S 743 mmHg 88%
    04:00 +18°C° 0 mm 1 m/S 743 mmHg 89%
    05:00 +18°C° 0 mm 1 m/S 743 mmHg 89%
    06:00 +19°C° 0 mm 1 m/S 743 mmHg 84%
    07:00 +20°C° 0 mm 1 m/S 743 mmHg 80%
    08:00 +22°C° 0 mm 1 m/S 743 mmHg 75%
    09:00 +23°C° 1.1 mm 2 m/S 743 mmHg 71%
    10:00 +24°C° 1.1 mm 2 m/S 743 mmHg 67%
    11:00 +25°C° 1.1 mm 3 m/S 742 mmHg 63%
    12:00 +25°C° 1.1 mm 3 m/S 742 mmHg 63%
    13:00 +24°C° 1.1 mm 3 m/S 742 mmHg 64%
    14:00 +24°C° 1.1 mm 3 m/S 742 mmHg 65%
    15:00 +24°C° 0.1 mm 3 m/S 742 mmHg 67%
    16:00 +24°C° 0.1 mm 3 m/S 742 mmHg 68%
    17:00 +24°C° 0.1 mm 3 m/S 742 mmHg 69%
    18:00 +21°C° 0 mm 3 m/S 742 mmHg 73%
    19:00 +20°C° 0 mm 3 m/S 742 mmHg 78%
    20:00 +18°C° 0 mm 3 m/S 742 mmHg 83%
    21:00 +18°C° 0 mm 3 m/S 742 mmHg 85%
    22:00 +17°C° 0 mm 3 m/S 743 mmHg 87%
    23:00 +16°C° 0 mm 3 m/S 743 mmHg 89%

    übermorgen, 26 Mai, Sonntag

    Zeit Temperatur Niederschläge Wind Luftdruck Luftfeuchtigkeit
    00:00 +14°C° 0 mm 3 m/S 743 mmHg 89%
    01:00 +13°C° 0 mm 3 m/S 743 mmHg 88%
    02:00 +13°C° 0 mm 3 m/S 743 mmHg 88%
    03:00 +13°C° 0 mm 3 m/S 744 mmHg 89%
    04:00 +12°C° 0 mm 3 m/S 744 mmHg 89%
    05:00 +13°C° 0 mm 2 m/S 744 mmHg 90%
    06:00 +14°C° 0 mm 3 m/S 744 mmHg 83%
    07:00 +16°C° 0 mm 3 m/S 745 mmHg 76%
    08:00 +18°C° 0 mm 3 m/S 745 mmHg 70%
    09:00 +19°C° 0 mm 4 m/S 745 mmHg 65%
    10:00 +20°C° 0 mm 4 m/S 745 mmHg 60%
    11:00 +20°C° 0 mm 5 m/S 745 mmHg 55%
    12:00 +21°C° 0 mm 5 m/S 745 mmHg 53%
    13:00 +21°C° 0 mm 5 m/S 745 mmHg 51%
    14:00 +22°C° 0 mm 5 m/S 745 mmHg 49%
    15:00 +21°C° 0 mm 5 m/S 745 mmHg 51%
    16:00 +21°C° 0 mm 5 m/S 745 mmHg 53%
    17:00 +21°C° 0 mm 4 m/S 744 mmHg 55%
    18:00 +20°C° 0 mm 4 m/S 745 mmHg 60%
    19:00 +19°C° 0 mm 3 m/S 745 mmHg 64%
    20:00 +17°C° 0 mm 2 m/S 745 mmHg 69%
    21:00 +17°C° 0 mm 2 m/S 745 mmHg 70%
    22:00 +16°C° 0 mm 3 m/S 745 mmHg 72%
    23:00 +16°C° 0 mm 3 m/S 745 mmHg 73%

    27 Mai, Montag

    Zeit Temperatur Niederschläge Wind Luftdruck Luftfeuchtigkeit
    00:00 +14°C° 0 mm 3 m/S 745 mmHg 77%
    01:00 +14°C° 0 mm 3 m/S 745 mmHg 80%
    02:00 +13°C° 0 mm 3 m/S 746 mmHg 84%
    03:00 +13°C° 0 mm 3 m/S 746 mmHg 87%
    04:00 +13°C° 0 mm 3 m/S 746 mmHg 90%
    05:00 +12°C° 0 mm 3 m/S 747 mmHg 93%
    06:00 +14°C° 0 mm 3 m/S 747 mmHg 83%
    07:00 +16°C° 0 mm 3 m/S 748 mmHg 72%
    08:00 +17°C° 0 mm 2 m/S 748 mmHg 62%
    09:00 +19°C° 0 mm 3 m/S 748 mmHg 58%
    10:00 +20°C° 0 mm 3 m/S 748 mmHg 53%
    11:00 +21°C° 0 mm 3 m/S 748 mmHg 49%
    12:00 +22°C° 0 mm 3 m/S 748 mmHg 48%
    13:00 +23°C° 0 mm 4 m/S 748 mmHg 48%
    14:00 +25°C° 0 mm 4 m/S 748 mmHg 47%
    15:00 +25°C° 0 mm 3 m/S 748 mmHg 49%
    16:00 +25°C° 0 mm 3 m/S 748 mmHg 51%
    17:00 +25°C° 0 mm 3 m/S 748 mmHg 53%
    18:00 +22°C° 0 mm 3 m/S 748 mmHg 61%
    19:00 +21°C° 0 mm 3 m/S 747 mmHg 69%
    20:00 +19°C° 0 mm 3 m/S 747 mmHg 77%
    21:00 +19°C° 0.1 mm 3 m/S 747 mmHg 82%
    22:00 +18°C° 0.1 mm 3 m/S 747 mmHg 87%
    23:00 +17°C° 0.1 mm 3 m/S 747 mmHg 92%

    28 Mai, Dienstag

    Zeit Temperatur Niederschläge Wind Luftdruck Luftfeuchtigkeit
    00:00 +17°C° 0.1 mm 3 m/S 747 mmHg 92%
    01:00 +17°C° 0.1 mm 2 m/S 747 mmHg 93%
    02:00 +17°C° 0.1 mm 2 m/S 747 mmHg 94%
    03:00 +17°C° 0 mm 2 m/S 747 mmHg 93%
    04:00 +17°C° 0 mm 2 m/S 747 mmHg 93%
    05:00 +18°C° 0 mm 2 m/S 747 mmHg 92%
    06:00 +19°C° 0.1 mm 3 m/S 747 mmHg 90%
    07:00 +20°C° 0.1 mm 3 m/S 747 mmHg 87%
    08:00 +21°C° 0.1 mm 3 m/S 748 mmHg 85%
    09:00 +22°C° 0 mm 4 m/S 747 mmHg 75%
    10:00 +25°C° 0 mm 5 m/S 747 mmHg 66%
    11:00 +26°C° 0 mm 6 m/S 747 mmHg 57%
    12:00 +27°C° 0 mm 6 m/S 747 mmHg 55%
    13:00 +27°C° 0 mm 6 m/S 747 mmHg 52%
    14:00 +27°C° 0 mm 6 m/S 747 mmHg 50%
    15:00 +27°C° 0 mm 6 m/S 747 mmHg 52%
    16:00 +27°C° 0 mm 5 m/S 746 mmHg 54%
    17:00 +27°C° 0 mm 5 m/S 746 mmHg 56%
    18:00 +26°C° 0 mm 5 m/S 746 mmHg 61%
    19:00 +23°C° 0 mm 4 m/S 746 mmHg 66%
    20:00 +21°C° 0 mm 4 m/S 747 mmHg 71%
    21:00 +21°C° 0 mm 4 m/S 747 mmHg 76%
    22:00 +20°C° 0 mm 4 m/S 747 mmHg 81%
    23:00 +20°C° 0 mm 4 m/S 747 mmHg 86%

    29 Mai, Mittwoch

    Zeit Temperatur Niederschläge Wind Luftdruck Luftfeuchtigkeit
    00:00 +19°C° 0 mm 4 m/S 747 mmHg 85%
    01:00 +19°C° 0 mm 4 m/S 747 mmHg 84%
    02:00 +18°C° 0 mm 4 m/S 747 mmHg 84%
    03:00 +17°C° 0 mm 5 m/S 747 mmHg 83%
    04:00 +17°C° 0 mm 5 m/S 746 mmHg 83%
    05:00 +17°C° 0 mm 5 m/S 746 mmHg 82%
    06:00 +20°C° 0 mm 6 m/S 746 mmHg 77%
    07:00 +21°C° 0 mm 6 m/S 746 mmHg 73%
    08:00 +22°C° 0 mm 6 m/S 746 mmHg 68%
    09:00 +23°C° 0 mm 7 m/S 746 mmHg 65%
    10:00 +26°C° 0 mm 7 m/S 746 mmHg 61%
    11:00 +27°C° 0 mm 7 m/S 746 mmHg 58%
    12:00 +28°C° 0 mm 7 m/S 746 mmHg 56%
    13:00 +28°C° 0 mm 7 m/S 746 mmHg 54%
    14:00 +29°C° 0 mm 7 m/S 746 mmHg 52%
    15:00 +29°C° 0 mm 6 m/S 746 mmHg 55%
    16:00 +29°C° 0 mm 6 m/S 746 mmHg 57%
    17:00 +29°C° 0 mm 5 m/S 746 mmHg 59%
    18:00 +27°C° 0.9 mm 4 m/S 746 mmHg 66%
    19:00 +25°C° 0.9 mm 3 m/S 746 mmHg 73%
    20:00 +23°C° 0.9 mm 2 m/S 746 mmHg 80%
    21:00 +21°C° 0.3 mm 2 m/S 746 mmHg 83%
    22:00 +20°C° 0.3 mm 2 m/S 746 mmHg 86%
    23:00 +20°C° 0.3 mm 3 m/S 746 mmHg 88%
    Mehr zeigen